Location: Gerlach
(40.6516°N, 119.3568°W)
Time: 15:17:30
(UTC-07:00)

ITAMSAT 1 - Pass Details

Date: 12 August 2024
Orbit: 782 x 795 km, 98.8° (Epoch: 14 September)

Event Time Altitude Azimuth Distance (km) Brightness Sun altitude
Exits shadow 20:51:54 12° 134° (SE) 2,230 9.4 -10.1°
Maximum altitude 20:56:21 39° 69° (ENE) 1,181 8.3 -10.8°
Drops below altitude 10° 21:01:11 10° 2° (N) 2,371 10.5 -11.6°
Sets 21:03:38 0° 355° (N) 3,305 11.4 -12.0°
